This is the latest recevied weather packets stored in our database for station/object KE1THD. If no packets are shown the sender has not sent any weather packets the latest 10 day(s).
| Time | Temp. | Humidity | Pressure | Rain* | Wind** | Luminosity | Snow |
|---|---|---|---|---|---|---|---|
| 1777523302 | 7.22° C | 63% | 1018 hPa | 0 mm | - | 0 W/m² | - |
| 1777522997 | 7.22° C | 60% | 1017.9 hPa | 0 mm | - | 0 W/m² | - |
| 1777522695 | 7.22° C | 56% | 1017.8 hPa | 0 mm | - | 0 W/m² | - |
| 1777522391 | 7.22° C | 61% | 1017.9 hPa | 0 mm | - | 0 W/m² | - |
| 1777522089 | 6.67° C | 57% | 1017.9 hPa | 0 mm | - | 0 W/m² | - |
| 1777521785 | 7.22° C | 63% | 1017.7 hPa | 0 mm | - | 0 W/m² | - |
| 1777521481 | 7.22° C | 61% | 1017.9 hPa | 0 mm | - | 0 W/m² | - |
| 1777521178 | 7.78° C | 58% | 1017.9 hPa | 0 mm | - | 0 W/m² | - |
| 1777520876 | 7.78° C | 54% | 1017.8 hPa | 0 mm | - | 0 W/m² | - |
| 1777520573 | 7.78° C | 55% | 1018 hPa | 0 mm | - | 0 W/m² | - |
| 1777520269 | 7.78° C | 55% | 1017.9 hPa | 0 mm | - | 0 W/m² | - |
| 1777519968 | 8.33° C | 56% | 1017.9 hPa | 0 mm | - | 0 W/m² | - |
| 1777519664 | 8.33° C | 55% | 1018 hPa | 0 mm | - | 0 W/m² | - |
| 1777519360 | 8.33° C | 54% | 1017.8 hPa | 0 mm | - | 0 W/m² | - |
| 1777519058 | 8.33° C | 52% | 1018 hPa | 0 mm | - | 0 W/m² | - |
| 1777518753 | 8.89° C | 51% | 1017.9 hPa | 0 mm | - | 0 W/m² | - |
| 1777518450 | 8.89° C | 51% | 1017.8 hPa | 0 mm | - | 0 W/m² | - |
| 1777518145 | 8.89° C | 51% | 1017.9 hPa | 0 mm | - | 0 W/m² | - |
| 1777517842 | 9.44° C | 49% | 1018 hPa | 0 mm | - | 0 W/m² | - |
| 1777517537 | 9.44° C | 48% | 1017.9 hPa | 0 mm | - | 0 W/m² | - |
| 1777517236 | 10° C | 47% | 1017.8 hPa | 0 mm | - | 0 W/m² | - |
| 1777516935 | 10° C | 47% | 1017.9 hPa | 0 mm | - | 0 W/m² | - |
| 1777516631 | 10° C | 46% | 1017.8 hPa | 0 mm | - | 0 W/m² | - |
| 1777516327 | 10° C | 47% | 1017.9 hPa | 0 mm | - | 0 W/m² | - |
| 1777516023 | 10° C | 46% | 1017.9 hPa | 0 mm | - | 0 W/m² | - |
* Rain latest hour (hover to see other rain measurements)
** Current wind speed in m/s (hover to see current wind gust speed)